Location: Pittsburgh
(40.4406°N, 79.9959°W)
Time: 20:10:06
(UTC-04:00)

IRAS - Pass Details

Date: 29 January 2020
Orbit: 878 x 906 km, 99.0° (Epoch: 26 July)

Event Time Altitude Azimuth Distance (km) Brightness Sun altitude
Rises 18:25:34 0° 14° (NNE) 3,543 7.7 -10.1°
Reaches altitude 10° 18:28:00 10° 14° (NNE) 2,597 7.0 -10.5°
Maximum altitude 18:33:48 87° 102° (ESE) 911 4.8 -11.6°
Drops below altitude 10° 18:39:34 10° 194° (SSW) 2,569 7.6 -12.7°
Sets 18:41:57 0° 195° (SSW) 3,502 8.3 -13.1°
